Tracking 34719 objects as of 12-Jul-2026
HD Live streaming from Space Station
objects crossing your sky now

QIANFAN-169

Track QIANFAN-169 now!
10-day predictions
QIANFAN-169 is classified as:


NORAD ID: 69386
Int'l Code: 2026-124E
Perigee: 888.9 km
Apogee: 899.0 km
Inclination: 89.0 °
Period: 102.7 minutes
Semi major axis: 7264 km
RCS: Unknown
Launch date: June 4, 2026
Source: People's Republic of China (PRC)
Launch site: Taiyaun Space Center, China (TSC)
Your satellite tracking list
Your tracking list is empty




NASA's NSSDC Master Catalog

Two Line Element Set (TLE):
1 69386U 26124E   26192.07812681  .00000010  00000-0 -24841-5 0  9996
2 69386  88.9992 359.3418 0006936  83.5162 276.6808 14.02024364  5199
Source of the keplerian elements: AFSPC